Theta_e
360 360 360 358 358 360 360 358 358 360 361 358 358 355 352 355 347 346 345 349 344 350 352 348 361 364 365 365 362 363 362 361 362 363 365 365 367 353 350 349 349 350 350 352 354 356 357 358 358 359 359 358 359 358 358 358 357 355 354 354 352 350 348 347 347 348 349 350 350 350 351 352 354 356
362 360 360 360 357 362 359 358 359 365 365 359 359 359 359 358 355 354 346 349 350 349 352 353 359 367 363 362 361 360 360 360 358 360 360 361 362 348 349 350 349 348 348 349 350 352 354 355 356 355 355 355 354 354 354 354 354 353 351 351 349 346 344 344 346 347 347 347 348 349 350 352 354 355
362 365 359 363 359 363 360 362 359 364 365 364 361 362 363 362 361 359 357 346 356 353 347 351 357 358 362 360 358 355 355 356 354 356 358 360 357 351 360 349 348 348 346 346 347 348 350 352 352 352 353 352 352 350 350 350 349 349 348 347 345 342 341 342 344 345 345 346 346 346 348 350 352 353
364 365 362 364 363 365 365 363 362 362 366 366 363 364 365 366 363 362 358 355 350 354 351 353 355 358 361 363 357 357 355 360 356 359 360 368 359 374 370 350 349 347 346 345 345 345 346 347 350 351 351 350 348 348 347 345 345 344 343 341 338 337 338 339 342 342 343 343 344 345 346 347 347 347
365 366 365 364 365 368 363 362 360 359 361 364 362 363 362 360 363 362 360 354 354 359 361 358 355 358 360 356 361 360 356 354 355 355 355 360 357 355 355 361 348 347 346 345 344 343 342 343 345 348 348 347 345 343 341 338 337 336 335 333 332 332 333 336 339 339 340 341 342 343 344 344 344 344
362 367 367 367 365 369 363 360 358 358 356 356 357 357 359 358 359 365 359 358 357 354 359 356 360 357 361 356 363 362 357 355 358 355 354 355 356 358 364 363 360 346 347 345 343 342 341 341 343 344 344 342 340 338 335 332 331 331 329 327 328 329 329 331 334 336 336 337 339 340 341 342 341 342
364 365 366 364 365 361 362 363 360 358 358 358 359 358 358 359 359 360 364 361 358 356 356 361 355 355 359 359 360 363 358 361 361 362 359 357 357 360 360 361 362 346 348 345 344 342 340 340 339 338 338 338 336 333 330 327 326 326 325 324 326 327 326 327 330 332 332 334 335 337 339 340 340 341
362 362 364 362 363 364 365 364 361 361 361 363 363 362 364 364 360 362 362 367 361 359 355 360 358 358 359 358 360 358 359 359 363 363 364 363 363 360 359 359 359 353 348 347 346 343 341 338 336 334 334 332 329 327 326 325 325 324 323 323 324 324 324 324 326 328 328 329 330 332 335 337 338 338
365 364 363 362 365 366 364 364 361 361 363 363 362 362 363 363 364 363 363 361 360 362 359 358 362 365 363 362 364 365 358 359 362 365 366 363 365 367 363 359 359 349 345 347 344 342 341 339 336 333 332 330 329 328 326 325 324 322 321 321 322 323 323 323 323 324 325 326 327 327 330 333 334 334
365 364 365 364 364 363 361 360 361 364 364 363 359 362 366 365 363 364 364 362 359 356 359 361 358 362 357 360 361 365 363 358 356 353 361 363 366 368 365 361 360 360 361 362 355 343 341 337 334 335 331 329 328 327 327 326 324 322 321 319 320 321 321 321 322 323 323 324 324 324 326 329 331 332
367 365 364 365 363 361 362 360 361 363 364 360 364 365 365 363 362 360 361 359 356 356 353 357 357 355 357 361 357 362 368 364 359 356 359 360 362 365 366 364 363 364 360 354 347 349 348 342 339 329 330 328 327 327 327 327 326 324 321 319 320 320 320 320 321 321 321 322 322 320 320 322 327 330
366 366 365 363 363 364 366 366 366 366 364 367 365 366 364 363 360 358 360 360 359 358 358 356 355 356 357 360 362 361 364 355 355 355 357 356 357 359 362 363 361 362 360 359 359 349 343 339 334 329 329 330 331 331 330 328 327 325 322 321 322 321 320 319 320 320 320 320 320 319 318 318 321 324
366 367 367 364 363 367 369 366 364 364 367 368 367 370 367 365 363 361 360 358 360 358 358 356 356 356 356 358 357 357 359 356 351 358 360 358 358 359 358 360 364 360 357 357 357 355 352 350 353 352 347 340 335 331 330 330 328 325 322 321 321 321 321 320 319 319 319 319 320 319 318 318 319 320
363 364 365 363 364 364 366 365 365 366 367 368 367 368 369 367 364 362 359 359 358 355 352 353 351 350 348 348 353 353 352 357 360 356 359 356 357 358 355 359 357 356 356 354 355 353 350 348 350 350 346 339 335 331 329 327 326 324 322 321 321 321 321 320 319 319 318 318 319 319 318 318 318 318
362 359 359 361 363 366 368 368 365 369 368 369 367 366 364 368 368 363 358 358 355 354 353 352 351 349 350 352 355 354 354 356 357 357 359 356 354 351 348 347 355 354 354 355 352 349 349 350 348 349 343 338 333 328 326 325 324 322 322 321 321 320 320 320 320 319 318 318 318 318 318 319 318 317
362 359 360 359 360 360 358 364 371 370 368 366 367 367 365 363 360 357 365 359 355 355 356 355 353 353 354 356 358 355 356 357 356 357 356 356 353 352 349 350 348 350 352 350 349 349 350 347 345 347 342 337 331 326 326 323 323 322 321 321 320 320 320 320 320 319 319 318 318 318 318 319 319 317
365 365 363 363 362 358 359 365 364 369 372 365 365 363 361 356 354 343 346 355 363 358 357 357 357 357 359 357 358 357 356 358 355 353 350 352 351 352 349 347 347 348 350 348 344 343 346 344 338 341 343 339 334 328 326 323 323 321 321 320 320 320 320 319 319 319 318 317 316 315 315 316 317 317
363 365 365 364 361 364 364 365 363 363 368 371 368 366 365 364 359 354 351 354 357 358 355 361 359 359 357 356 357 358 357 354 352 349 348 351 349 349 348 350 349 345 344 341 341 340 340 340 332 334 343 339 339 333 324 322 321 321 320 320 319 319 319 319 319 318 317 317 316 314 313 313 314 316
362 364 363 365 366 365 363 352 348 362 365 367 364 363 360 358 359 357 355 354 356 359 359 359 358 355 355 354 352 352 352 353 352 350 351 350 350 349 352 351 348 341 339 337 336 331 338 337 330 331 333 341 338 331 322 320 322 321 320 320 320 319 318 318 318 317 317 316 315 314 313 312 312 312
364 363 363 364 365 361 360 336 330 342 356 359 357 360 357 354 350 343 334 326 332 343 347 347 345 339 335 333 340 339 339 344 349 351 349 348 347 343 342 340 341 336 334 332 329 328 333 335 326 327 329 332 340 337 331 323 321 321 321 320 319 318 317 317 317 317 317 316 315 315 313 311 310 312
360 358 358 360 361 361 349 329 321 329 346 356 358 358 354 347 345 342 338 328 325 323 322 322 324 324 325 326 324 324 326 338 341 345 343 339 339 338 335 335 334 334 331 327 327 328 332 329 329 325 325 329 335 340 337 331 322 319 319 318 317 318 317 316 316 316 317 316 315 315 313 311 311 314
357 350 347 352 355 350 343 323 323 328 349 357 358 352 345 344 344 343 340 337 331 326 325 325 326 327 329 331 330 329 328 329 338 338 333 332 331 331 331 330 330 333 330 325 327 332 328 326 330 323 327 329 330 335 336 333 332 320 318 317 318 317 318 318 317 317 316 315 315 315 312 311 312 329
354 349 342 342 344 343 335 320 324 330 349 352 348 346 342 342 339 341 342 341 338 337 335 337 339 339 336 337 336 336 336 335 335 333 330 330 331 330 330 325 323 325 327 323 327 326 328 325 327 324 324 320 329 337 333 330 333 336 334 332 327 317 319 319 317 315 314 315 314 314 312 310 313 326
354 348 342 336 324 321 320 319 319 323 330 343 344 345 344 342 338 341 342 341 339 338 337 334 333 332 331 331 332 331 331 331 332 330 330 329 330 329 329 326 324 322 323 323 323 323 325 327 325 326 324 321 318 323 325 328 330 331 334 331 326 321 321 321 319 314 314 314 312 313 311 311 311 323
350 348 339 336 324 317 316 314 314 317 324 333 342 344 344 347 344 340 337 334 334 336 333 330 330 331 331 331 331 329 330 327 327 328 327 328 326 324 323 322 322 324 325 323 324 326 321 324 325 323 323 323 322 321 323 324 327 330 335 332 327 327 328 327 324 329 315 311 309 311 312 312 311 317
346 344 341 337 323 314 314 313 312 314 319 327 342 333 317 319 326 338 338 336 334 331 330 330 329 328 327 326 326 327 327 325 325 324 324 325 325 323 322 321 320 320 320 325 324 323 319 321 321 320 320 317 317 318 318 321 325 329 329 328 329 328 328 327 326 325 328 329 328 321 320 314 313 312
338 340 338 333 323 312 309 310 312 317 319 329 325 313 317 320 324 335 336 333 330 329 328 328 328 328 326 326 325 326 326 327 328 325 324 324 324 324 322 322 321 320 320 323 324 324 323 319 322 320 317 317 316 316 318 317 319 324 322 322 327 325 326 325 324 324 324 325 326 316 313 312 310 312
334 335 334 326 308 305 304 306 311 318 328 327 310 314 318 323 331 333 332 329 331 330 327 326 325 324 324 325 326 325 326 325 327 325 324 324 324 323 322 323 323 321 322 321 323 323 323 321 319 322 320 317 315 312 313 317 318 319 317 321 324 322 323 323 322 323 324 325 325 325 325 325 326 323
330 319 309 306 307 307 307 310 314 316 316 312 314 317 323 331 331 331 329 329 329 326 324 322 322 323 324 325 326 327 327 326 325 324 323 323 324 324 325 326 326 324 320 321 322 322 322 321 319 320 320 318 315 317 314 314 316 317 318 319 317 322 322 322 323 322 322 323 323 322 322 324 323 323
318 313 311 310 309 313 318 332 335 333 331 322 323 324 332 328 328 328 329 329 327 325 323 323 324 323 323 322 324 326 325 323 321 322 322 322 322 323 322 321 326 326 324 323 322 322 321 321 321 320 318 319 317 317 318 316 316 317 319 317 320 322 321 322 320 320 322 321 321 322 323 324 323 321
324 322 324 324 320 320 322 327 328 326 327 329 329 330 328 328 329 329 329 328 327 326 323 323 323 323 324 324 324 322 322 321 322 323 322 320 320 322 322 321 323 323 323 324 323 322 321 321 322 321 317 317 318 318 319 319 316 316 318 320 321 316 318 320 320 320 321 322 321 320 322 322 321 322
331 329 325 324 331 329 328 327 327 328 331 330 330 329 327 324 323 324 325 326 328 327 325 325 324 325 326 323 323 322 322 321 322 323 321 321 320 320 320 319 319 320 321 322 322 322 321 322 322 321 320 318 317 318 319 318 316 315 316 320 320 319 319 317 318 319 321 321 318 318 320 320 320 321
332 332 331 331 329 328 327 328 329 328 327 327 327 326 329 328 327 327 326 326 326 327 326 325 325 325 323 323 323 322 322 322 321 322 320 322 320 321 320 317 317 317 316 316 318 320 322 321 322 321 320 321 320 319 316 314 316 318 318 318 317 316 317 318 318 318 322 319 318 318 317 319 320 320
332 331 330 329 328 329 328 327 326 326 326 326 325 325 323 325 325 324 324 324 323 325 325 325 323 323 322 322 322 322 321 321 320 321 317 319 320 318 316 315 316 317 316 315 316 317 318 318 319 320 321 321 321 322 320 316 314 317 318 316 315 314 316 319 318 319 319 317 315 314 315 316 319 319
330 330 329 328 328 328 327 326 326 327 325 325 325 325 324 324 322 323 323 323 324 323 324 323 322 322 321 320 320 319 318 318 317 319 320 319 319 316 315 314 315 315 315 314 314 316 315 315 315 315 315 317 317 321 321 322 317 316 316 314 314 313 315 316 315 317 317 316 315 313 313 315 315 318
331 330 328 328 328 327 327 326 326 325 324 324 324 323 323 323 324 324 323 323 325 323 323 322 321 320 319 319 319 317 316 315 316 317 317 317 316 315 315 314 314 314 313 313 313 314 314 313 313 311 310 310 310 310 318 314 314 315 312 311 313 313 313 314 314 315 314 314 314 312 310 311 312 315
329 329 329 328 329 327 325 326 325 324 324 323 323 324 323 323 323 324 324 325 323 321 319 319 320 319 318 318 316 317 317 317 315 315 315 315 315 314 313 313 312 312 311 311 312 312 314 312 312 311 309 307 307 307 309 317 310 312 315 311 312 312 311 311 311 311 311 312 312 312 310 311 311 312
329 328 327 326 327 326 326 324 324 323 323 324 323 323 324 323 324 324 325 323 321 320 320 320 319 318 317 316 316 315 315 315 314 313 312 312 312 311 310 310 310 310 309 310 311 311 312 312 311 310 308 306 305 305 306 310 311 311 312 312 308 309 311 310 309 308 310 312 310 311 311 310 310 312
328 327 326 326 325 326 324 324 324 323 324 323 322 322 322 321 321 321 321 319 320 319 319 318 318 316 315 316 314 314 314 313 312 312 311 311 311 309 308 308 307 308 307 308 310 311 311 310 309 308 307 305 303 304 304 303 304 309 309 307 310 310 310 309 307 308 308 308 310 311 312 313 312 312
327 327 326 325 326 325 326 326 324 323 323 323 322 322 321 320 320 320 319 318 319 319 318 316 316 313 315 314 313 312 311 311 310 310 309 309 309 308 307 306 305 305 307 307 307 309 309 308 309 307 306 305 306 307 307 307 307 310 312 311 306 310 311 309 307 306 306 308 308 306 306 308 308 311
325 325 326 325 326 325 324 323 323 322 322 323 324 321 322 322 320 319 318 317 318 317 316 315 315 313 313 312 312 310 308 308 308 308 309 308 307 306 305 304 305 307 306 306 307 307 307 308 309 309 308 308 309 310 307 305 304 307 308 310 306 305 307 310 309 308 307 308 306 305 304 305 306 307
326 325 325 325 324 324 324 323 323 321 322 321 320 319 321 321 320 312 314 314 316 316 314 313 313 312 311 311 311 309 308 308 307 307 307 306 306 306 306 306 306 306 305 304 305 306 308 311 310 310 309 308 306 304 302 303 303 304 307 307 310 308 308 307 307 308 310 308 305 304 303 304 305 305
323 323 322 322 323 323 322 322 321 320 319 319 318 319 318 318 317 315 315 316 316 314 313 313 313 312 311 310 309 309 308 307 307 306 306 306 305 305 305 305 305 305 305 305 306 306 307 309 309 307 306 306 305 305 302 303 303 304 304 305 307 308 309 308 307 307 306 307 306 306 307 305 302 300
320 320 320 320 320 321 322 321 320 320 320 320 319 318 316 315 316 315 315 314 313 313 313 312 311 310 310 310 308 307 307 306 305 305 304 304 304 304 304 304 304 304 304 304 304 304 305 305 305 305 304 303 304 303 302 303 302 303 303 304 306 306 305 307 309 307 307 308 306 306 306 307 306 306
321 322 321 322 322 321 320 320 318 319 318 316 316 315 315 315 313 314 315 314 312 312 311 311 310 309 309 308 307 305 305 305 305 305 305 305 304 304 304 303 302 302 302 303 302 302 303 303 304 305 304 303 304 303 303 303 302 303 303 304 304 305 305 305 304 304 305 306 307 307 307 307 307 307
Wind_Speed
4 4 3 3 2 2 1 4 2 2 3 3 2 3 2 1 3 4 4 2 5 3 2 5 4 3 2 2 4 2 3 6 6 3 2 3 4 6 5 6 7 6 6 7 7 8 8 8 8 9 10 11 12 12 12 13 14 14 14 15 16 16 16 15 14 13 12 11 7 6 7 6 6 6
4 4 4 4 4 2 4 5 2 2 2 3 3 3 2 2 4 3 5 4 5 5 3 4 5 5 2 4 4 1 2 8 6 4 2 3 5 5 4 8 6 6 6 7 7 7 7 8 8 9 10 11 11 12 11 12 12 13 13 14 14 14 15 14 14 14 13 12 11 10 9 9 8 8
3 3 4 2 4 2 4 2 4 3 3 3 3 3 3 3 4 4 4 6 2 4 5 5 5 3 1 4 4 4 3 6 3 4 4 2 3 5 6 8 10 7 7 6 7 6 6 7 8 9 10 11 12 12 12 12 12 12 13 13 13 13 13 12 13 13 13 13 12 11 11 11 11 10
2 4 5 3 4 3 3 4 3 3 4 4 4 4 3 4 4 4 5 6 6 5 6 6 4 4 2 2 4 4 5 7 7 3 4 2 5 8 7 7 12 10 7 7 6 7 8 9 9 10 11 12 12 12 12 12 12 13 13 13 13 13 12 12 12 12 12 12 12 12 11 11 11 10
4 4 4 4 4 3 5 4 5 5 4 5 5 4 4 5 4 5 5 6 6 5 5 5 5 4 4 2 1 4 4 4 4 5 3 4 4 5 3 7 9 10 9 7 7 8 9 9 9 10 11 11 12 12 12 12 12 13 13 13 13 12 14 13 13 13 13 12 12 11 11 11 10 10
5 4 5 5 5 5 6 6 6 6 5 5 5 4 5 4 4 3 5 5 5 5 5 4 4 5 2 5 1 3 5 5 5 6 6 4 4 4 4 4 5 10 11 9 8 9 10 10 10 10 11 11 11 11 12 12 12 12 12 12 12 12 12 13 13 13 13 13 12 12 11 11 10 10
6 6 6 6 6 5 5 5 6 6 5 5 5 5 4 4 4 3 4 5 5 6 5 4 6 3 1 4 4 4 4 4 3 5 6 5 4 4 4 2 7 9 13 11 9 10 10 10 11 11 10 11 11 11 11 11 11 12 12 12 11 11 11 12 12 13 13 13 13 12 12 12 11 11
6 6 6 6 5 4 4 5 5 5 5 4 4 4 4 3 5 5 4 5 5 5 5 4 5 5 4 4 4 4 3 4 3 4 4 4 3 5 5 6 4 7 12 11 11 11 11 11 12 11 12 11 11 11 12 13 12 12 12 12 12 12 12 12 11 12 11 11 11 11 12 12 12 11
5 5 6 5 5 5 5 6 6 5 4 4 4 5 1 1 1 2 4 7 8 6 6 5 4 4 5 4 4 3 4 4 4 2 2 5 3 4 6 7 7 6 9 10 10 12 13 12 12 12 12 12 12 13 13 13 13 13 13 13 13 13 13 12 12 12 12 12 12 12 12 12 12 11
6 6 5 6 6 6 6 6 5 5 6 5 6 2 1 2 2 2 2 2 4 10 9 6 6 5 5 4 4 4 4 4 3 5 7 5 3 4 6 7 4 4 5 6 7 10 9 12 12 11 12 12 12 13 13 13 13 13 13 13 13 13 13 13 12 12 12 12 12 12 12 12 12 12
6 6 6 6 6 7 7 7 6 5 5 5 4 2 3 3 2 2 2 2 2 3 6 10 7 6 5 3 5 1 2 6 9 9 5 5 3 3 4 5 4 5 4 6 9 6 5 13 10 10 11 11 13 15 13 13 13 13 13 13 13 14 13 13 13 13 13 13 12 12 12 12 13 13
6 6 6 7 6 7 6 6 5 4 4 3 4 2 2 3 3 3 2 2 2 3 4 4 9 7 5 5 5 5 2 2 2 7 7 5 4 3 3 3 3 4 6 3 3 5 12 12 14 15 14 11 7 7 13 14 14 12 12 12 13 14 14 14 14 13 13 13 13 12 13 13 13 12
7 7 7 7 8 3 4 3 3 5 5 4 4 3 2 3 2 3 3 2 3 4 4 4 6 8 4 4 5 1 2 3 2 6 4 5 4 4 4 2 2 4 6 5 5 4 4 3 5 3 5 5 7 11 11 10 12 13 11 12 12 13 13 13 13 13 13 13 12 12 12 12 12 12
8 8 7 8 4 3 5 4 5 7 6 6 7 4 3 4 3 3 3 3 3 2 6 9 5 6 6 6 3 3 6 2 3 4 5 5 5 5 5 1 3 5 5 6 4 4 5 5 3 2 2 5 7 6 7 7 7 8 9 11 11 12 12 13 13 13 12 12 12 12 12 12 12 12
8 8 8 8 7 6 7 8 7 5 7 6 7 7 7 5 5 4 3 3 4 7 9 5 6 6 6 6 6 6 5 5 6 5 5 5 6 6 7 6 2 5 6 5 3 1 4 4 2 1 3 4 5 6 7 6 7 7 9 10 10 11 11 12 12 12 12 11 11 11 11 11 11 11
7 7 7 8 8 2 6 7 3 6 7 6 5 4 4 1 3 6 2 4 5 7 7 6 7 7 5 5 5 5 5 5 6 6 6 5 6 7 7 5 4 4 5 5 5 1 2 3 2 3 3 4 5 7 6 6 6 6 8 9 9 10 10 10 11 11 11 11 11 10 9 9 9 9
6 4 5 5 3 4 7 6 7 5 4 6 5 6 6 6 5 3 1 1 4 6 6 6 5 4 5 5 3 4 5 6 7 7 6 6 6 6 6 5 4 4 5 5 4 4 3 3 5 2 4 4 6 7 7 5 5 6 8 8 9 9 9 9 10 10 10 11 11 10 9 8 7 7
5 4 4 3 4 2 3 3 4 8 5 4 6 5 4 3 7 7 8 6 6 5 6 4 3 3 4 4 4 5 5 6 7 6 6 6 6 6 6 4 2 2 5 5 5 6 0 3 4 4 3 7 5 6 7 6 6 5 5 7 7 8 8 9 9 9 10 10 10 11 11 9 6 6
4 4 5 4 4 1 3 4 6 5 5 4 5 6 5 5 3 5 7 7 6 4 2 1 2 3 2 3 4 4 4 5 5 5 5 5 5 6 5 2 1 3 4 6 5 5 2 2 4 2 4 2 6 7 8 8 8 6 5 4 5 5 6 7 7 8 9 9 10 10 11 12 9 4
3 4 4 4 3 3 2 6 8 6 5 5 9 6 4 4 6 7 9 10 14 13 10 9 8 8 9 10 8 7 7 5 5 5 6 5 3 5 5 5 5 0 6 7 6 5 4 4 4 5 5 4 3 6 7 10 11 8 6 4 3 3 4 5 6 6 8 9 9 10 11 12 13 10
1 1 3 4 4 4 4 6 5 5 7 5 6 4 4 7 5 4 6 12 14 15 14 14 12 9 9 11 12 12 13 10 8 6 5 4 4 4 5 4 4 3 5 7 8 6 4 4 4 5 5 5 4 3 4 8 10 12 9 7 4 2 1 2 4 3 4 6 7 9 10 12 14 16
3 4 7 5 3 4 5 3 4 6 5 4 4 5 7 1 5 3 2 5 7 9 6 7 8 7 6 8 9 11 12 12 9 6 5 7 5 5 4 3 4 2 5 7 9 6 2 4 4 5 6 5 5 3 1 2 6 11 10 9 8 8 4 4 5 4 1 2 7 7 9 11 15 9
4 3 4 9 8 6 5 5 7 7 4 3 4 5 4 3 3 3 3 3 4 4 4 3 4 5 6 6 5 6 9 11 11 7 7 6 4 4 3 3 3 5 5 7 10 6 4 5 4 6 5 6 1 2 1 3 3 2 2 4 7 9 7 9 9 9 6 1 3 4 7 9 12 6
2 4 5 6 7 6 6 7 9 10 7 2 0 3 3 8 7 4 5 4 3 4 4 4 5 5 4 4 4 5 6 6 8 7 6 6 6 4 3 2 2 4 4 7 9 5 5 4 4 5 5 4 4 3 5 4 4 4 3 3 5 8 9 11 11 12 7 9 5 1 5 7 8 7
2 3 5 5 6 7 9 9 9 9 7 4 1 0 1 4 7 8 6 7 6 5 4 4 3 1 1 2 3 4 4 5 6 6 7 7 6 5 5 4 3 3 4 6 8 5 5 5 4 5 4 5 6 7 5 6 5 4 2 4 5 4 4 4 4 3 10 11 6 4 2 3 7 6
2 5 3 4 6 9 9 8 9 10 9 8 6 9 11 13 11 8 6 4 3 3 2 1 1 2 2 3 3 4 4 4 5 5 5 5 6 6 5 5 5 4 4 6 3 4 5 4 5 6 5 6 6 7 8 7 5 1 4 5 4 4 4 5 3 4 5 4 4 2 6 6 8 9
5 3 4 6 9 8 8 8 7 7 9 9 7 10 11 12 10 7 4 4 2 2 2 3 3 3 3 3 3 3 3 4 4 4 4 4 4 4 4 5 4 4 4 4 4 3 4 4 4 5 5 6 7 7 7 7 5 5 6 5 5 6 4 3 4 5 5 5 5 4 10 11 12 11
4 3 4 4 5 7 7 8 8 6 7 7 8 9 8 6 4 4 4 3 3 2 3 3 3 3 3 3 3 4 4 4 3 3 2 2 2 3 2 2 1 1 2 2 2 3 3 4 5 4 5 6 7 7 8 7 7 7 7 6 6 6 5 4 5 5 5 4 6 6 6 5 3 5
4 4 6 6 6 7 10 11 9 8 7 7 8 8 5 3 4 3 3 4 3 3 3 3 3 3 3 4 4 3 2 1 2 2 2 1 2 1 1 1 2 2 3 0 2 2 3 4 5 5 5 5 7 7 7 8 8 8 7 7 7 4 5 6 4 5 5 5 5 6 6 6 6 5
6 5 5 7 8 8 7 6 5 6 6 6 6 3 6 5 4 3 4 3 3 3 3 3 3 3 3 3 3 2 1 2 4 4 4 3 2 4 4 5 3 3 2 2 2 1 3 4 4 5 6 6 6 8 7 8 8 7 7 8 7 7 6 4 5 6 6 5 6 6 6 6 6 6
3 4 4 3 4 7 7 8 8 10 8 7 6 5 4 4 4 3 3 3 3 3 2 3 3 3 3 2 2 1 2 1 2 3 3 4 4 4 4 5 5 3 2 3 3 2 3 4 4 5 6 7 7 7 8 8 9 8 8 7 5 6 6 7 6 6 5 6 7 8 7 6 6 6
5 5 7 7 7 8 8 8 7 7 5 5 4 4 5 6 6 8 8 6 4 3 3 3 2 2 1 2 0 0 0 2 2 3 4 4 4 5 5 5 4 4 4 3 4 2 3 3 4 5 6 7 8 8 7 8 8 8 8 6 6 6 7 7 7 6 5 6 8 8 7 6 7 6
7 7 7 7 8 8 9 8 7 6 5 4 4 5 5 5 4 3 3 4 4 3 3 2 2 2 1 1 1 1 1 2 2 2 4 4 4 5 5 5 5 5 6 6 5 5 4 4 5 7 7 8 8 9 8 8 7 7 7 6 6 7 7 6 6 7 7 7 8 8 7 7 7 7
7 8 8 7 7 7 7 6 6 6 5 5 4 4 2 2 4 3 3 3 3 3 1 1 0 1 1 0 2 2 3 2 3 1 1 4 4 5 5 6 6 5 6 7 7 6 6 6 7 7 8 9 9 9 8 7 7 7 6 6 7 8 7 7 7 8 7 7 8 9 8 7 6 6
6 6 7 7 6 6 5 5 5 4 3 3 2 3 3 3 3 2 3 3 1 1 1 1 1 2 2 3 2 4 3 4 5 4 4 4 4 5 6 6 6 6 7 7 7 6 7 7 7 8 7 7 7 9 14 9 6 5 5 7 7 8 7 7 8 8 9 8 8 9 9 8 7 6
6 6 6 6 6 5 5 4 3 3 3 2 1 1 2 3 2 2 4 3 2 1 1 1 2 2 3 3 3 4 4 4 5 4 5 5 5 5 6 6 6 7 7 7 7 7 7 7 7 8 8 8 7 8 4 3 4 3 6 7 6 8 8 9 9 9 9 9 9 9 9 9 8 8
4 5 5 5 4 4 4 4 3 2 1 1 1 0 0 2 2 3 4 1 1 2 4 4 2 3 2 2 4 3 3 4 4 4 4 5 5 6 6 6 7 7 8 7 7 7 6 7 6 7 8 8 8 7 5 6 6 5 6 7 7 7 9 9 10 10 10 10 10 10 10 10 10 10
4 4 5 4 4 3 2 2 2 1 1 1 1 1 1 1 1 1 0 1 1 2 0 2 2 2 3 4 4 4 5 4 5 5 5 5 5 6 6 7 7 7 8 8 7 6 5 6 6 6 6 8 8 8 8 7 8 2 9 3 9 9 9 9 10 10 10 10 11 11 11 12 11 10
4 4 4 3 3 3 3 2 2 2 2 2 2 2 1 1 1 1 1 2 3 3 3 2 2 4 4 4 4 4 5 5 6 6 6 6 6 6 7 7 8 8 8 8 7 6 5 5 5 6 7 8 8 9 10 11 10 10 7 12 13 10 10 9 11 11 11 11 10 11 11 11 12 15
3 3 3 3 4 3 3 3 3 2 3 2 3 2 1 2 2 1 1 1 1 1 3 2 2 3 4 4 5 5 5 6 6 6 6 6 6 7 7 7 8 8 7 7 7 6 5 6 6 7 9 9 10 10 11 12 12 12 12 11 10 7 6 10 11 11 11 11 11 12 12 10 11 10
3 3 2 2 3 3 3 4 3 3 2 1 1 3 3 4 3 3 4 4 2 3 2 1 2 3 3 4 4 5 5 5 6 6 6 6 7 7 7 7 7 6 7 7 7 6 6 7 9 9 10 9 9 10 10 10 10 8 8 6 8 10 7 8 8 10 11 11 11 12 12 11 11 11
3 3 3 3 3 3 3 3 2 3 2 2 3 2 2 3 1 5 0 2 2 1 3 2 1 2 3 3 3 3 4 5 6 6 6 7 7 7 6 6 6 6 7 7 7 7 7 8 9 9 9 9 9 9 10 11 11 11 11 10 11 10 9 11 10 8 9 10 11 11 11 11 10 10
4 4 3 3 3 3 3 3 2 2 3 2 3 2 3 3 2 4 4 2 1 2 1 1 2 2 3 3 4 5 6 6 5 6 7 7 7 7 7 7 7 8 8 8 8 9 9 9 9 9 8 9 8 9 10 11 11 11 11 11 11 10 11 9 11 14 16 16 15 13 11 10 10 11
4 4 4 4 4 3 2 2 1 1 0 2 1 2 4 2 2 2 2 1 2 2 1 2 2 3 3 4 4 5 5 6 6 7 6 6 6 7 7 7 8 8 8 8 9 8 9 9 9 9 9 9 8 9 10 11 11 11 11 12 11 12 12 10 10 10 10 15 19 20 20 18 16 15
4 4 4 3 3 2 2 2 2 1 1 1 2 2 1 2 3 1 1 1 2 2 2 2 2 3 5 5 5 6 5 5 6 6 6 6 6 6 6 7 7 8 8 8 9 9 8 9 9 8 9 9 9 10 11 11 12 12 12 12 13 11 11 11 11 12 11 11 9 16 20 19 19 19
Wind_Direction
234 215 196 265 270 278 311 288 277 35 337 311 352 315 314 305 300 295 305 275 302 300 325 322 66 11 312 284 304 284 23 45 322 7 350 59 84 75 71 61 60 39 43 37 30 28 30 32 32 30 27 25 21 20 19 19 18 16 14 14 13 10 7 3 1 359 355 345 340 334 315 295 274 267
246 254 244 216 235 195 225 223 253 127 251 261 234 235 254 237 275 313 302 320 302 315 326 295 125 237 270 266 261 306 52 90 306 341 349 348 50 126 130 112 93 65 53 51 45 42 40 42 41 38 35 29 31 29 25 23 22 19 19 18 15 13 8 5 4 3 1 359 353 345 333 321 312 304
247 257 257 243 260 265 282 304 249 159 225 239 264 283 284 263 276 283 297 290 301 312 310 307 326 337 307 312 318 337 358 105 4 312 325 30 113 200 155 126 110 93 65 58 53 49 43 50 46 49 39 38 41 37 30 29 25 21 19 17 15 12 7 4 5 4 3 2 360 358 354 348 340 333
200 235 245 245 267 247 263 261 285 248 238 265 267 253 241 245 252 258 263 274 287 293 299 317 308 279 338 299 316 1 312 123 163 340 288 15 243 232 144 132 109 101 83 68 58 53 56 53 54 48 47 47 44 39 35 28 25 23 20 17 14 9 6 7 6 6 4 2 2 2 2 1 360 354
224 231 245 250 244 252 256 256 255 255 244 232 240 247 251 253 242 240 248 269 283 290 313 311 307 332 335 322 16 305 319 323 359 297 300 278 297 315 330 109 106 106 100 88 79 72 66 67 62 55 55 52 45 43 39 32 31 28 25 22 18 12 14 10 8 9 7 4 4 4 3 5 5 4
251 209 231 239 233 220 239 256 259 264 261 257 258 238 238 257 264 256 269 268 278 287 284 292 326 312 298 290 305 325 307 337 316 327 310 315 305 327 318 97 113 119 109 101 91 82 80 77 70 66 62 58 53 51 44 41 36 33 31 27 25 21 19 13 14 13 9 7 7 6 6 7 7 8
224 226 227 231 233 237 233 236 252 264 272 276 281 283 289 285 276 262 247 265 270 283 290 279 265 249 300 291 312 295 320 312 297 309 322 326 330 334 322 327 128 135 118 112 101 92 88 83 79 74 67 61 59 53 48 44 39 36 35 32 27 27 23 20 18 18 17 16 13 13 15 16 18 20
223 229 230 246 255 268 261 262 270 271 267 272 263 263 265 281 312 310 279 240 265 278 279 276 286 302 302 282 286 308 303 298 322 313 338 323 328 335 326 312 84 138 125 126 116 106 103 95 84 76 68 66 60 54 50 45 40 36 34 31 30 30 28 28 25 22 19 18 13 14 20 20 23 24
250 245 247 247 246 243 252 259 259 265 268 268 277 275 10 322 252 274 321 319 298 270 268 277 269 275 271 275 278 280 306 302 318 305 309 324 331 336 324 321 87 100 109 111 109 115 110 107 96 78 69 65 60 54 49 43 38 34 30 29 28 27 27 28 28 29 28 28 27 26 26 28 30 32
229 236 240 246 247 252 257 269 280 285 288 284 273 308 53 293 293 287 300 276 299 308 297 283 278 259 271 280 296 294 309 325 312 323 305 321 358 329 349 327 324 162 159 161 151 116 113 114 104 94 84 78 70 59 51 44 40 34 29 28 27 25 25 25 27 29 31 33 35 33 31 33 36 37
244 246 248 246 244 251 255 263 266 268 267 279 307 303 282 262 261 268 262 244 227 220 266 285 272 260 277 296 291 321 265 11 342 323 316 319 343 332 339 324 346 338 2 72 36 42 105 107 101 109 104 95 84 74 59 49 41 34 30 28 27 25 24 24 25 27 29 32 34 35 34 33 36 35
255 252 256 257 251 244 243 249 263 261 269 272 272 266 267 271 271 275 252 247 261 271 278 290 302 310 319 285 285 280 61 13 285 255 281 316 326 310 298 288 330 350 332 339 176 137 114 115 122 121 114 108 105 97 86 59 41 32 31 31 29 27 25 24 24 25 26 28 30 32 34 34 35 38
248 255 254 258 260 1 37 42 318 318 335 287 269 260 246 258 268 274 292 290 287 287 282 287 278 267 278 283 276 328 244 245 286 287 312 305 290 307 317 333 58 349 338 336 353 352 321 180 170 94 70 86 92 65 48 70 53 31 30 34 32 28 27 26 25 25 25 24 25 28 31 34 35 37
250 243 249 256 271 229 240 250 230 237 238 240 275 291 278 256 249 260 294 291 276 306 278 259 262 293 296 299 304 316 291 260 234 306 317 312 321 318 305 347 42 9 347 338 7 348 325 322 29 4 46 85 62 59 56 41 34 30 34 39 35 32 29 28 27 27 25 24 23 23 26 31 35 35
268 266 251 248 193 223 226 223 222 224 197 213 234 248 261 293 280 244 239 297 290 255 263 300 284 286 300 303 317 305 310 340 343 328 324 315 320 317 320 325 138 76 352 336 345 42 300 320 45 46 87 68 66 75 61 38 46 39 45 43 40 36 33 30 30 27 26 25 23 21 19 25 31 35
256 275 315 317 327 19 14 331 254 212 218 217 223 213 198 147 16 15 324 266 267 304 298 301 321 302 301 313 319 334 349 339 322 324 317 332 329 325 320 331 335 31 352 338 323 189 257 325 328 143 112 98 74 73 74 68 44 47 46 44 39 38 35 34 31 29 26 23 24 20 16 13 20 33
259 265 264 285 278 96 249 246 266 266 196 194 201 150 135 132 124 117 58 315 290 274 289 293 287 341 341 328 357 4 349 327 316 317 315 328 319 327 324 338 332 31 348 320 323 328 347 335 305 160 138 131 127 123 100 67 63 45 48 40 36 33 34 31 29 27 24 23 17 15 14 7 358 12
265 255 256 230 257 263 261 277 278 260 246 216 205 185 212 205 162 179 176 203 201 246 288 347 335 46 1 347 351 350 339 328 326 336 331 335 327 325 336 355 359 26 344 338 333 302 165 2 320 313 148 134 121 111 113 120 86 69 55 47 38 34 30 28 24 23 20 19 18 10 4 1 355 335
252 265 263 254 246 219 251 28 0 312 275 264 259 234 239 265 24 25 4 355 325 298 337 340 58 20 21 22 15 8 350 351 333 328 322 319 332 317 299 265 275 119 42 359 327 312 345 37 312 311 310 191 138 127 145 139 120 98 80 70 52 39 33 27 25 20 17 14 12 7 3 351 345 327
234 249 257 260 241 179 159 40 6 348 317 260 250 260 298 349 56 49 42 30 35 33 38 37 52 53 49 39 40 23 6 339 316 290 271 259 276 302 305 296 245 112 72 21 348 318 320 28 336 334 310 307 231 159 145 156 139 134 122 115 89 42 20 14 15 18 13 12 5 2 357 352 338 323
237 296 305 272 254 156 82 40 350 352 321 281 290 319 31 40 35 54 74 61 50 49 56 73 77 86 76 62 45 31 18 5 336 326 307 321 345 297 296 288 291 68 52 35 352 319 299 14 347 330 322 309 284 235 156 152 162 153 150 139 134 123 225 308 326 360 15 4 6 358 353 347 338 313
110 49 19 356 45 73 77 51 25 7 318 282 304 5 43 60 175 194 129 98 78 80 78 82 90 85 88 85 65 41 23 6 358 6 346 342 320 307 293 330 324 79 69 33 355 309 356 358 7 342 322 279 246 231 171 329 161 164 169 171 159 179 194 221 256 265 167 350 354 2 348 349 333 305
162 121 74 47 45 68 88 76 59 34 3 32 37 89 93 50 122 160 143 110 122 132 141 150 144 121 80 52 51 56 42 31 27 24 5 348 333 325 3 334 305 245 100 35 358 334 350 354 17 359 333 331 329 168 331 289 294 276 287 173 174 178 196 208 211 231 213 189 345 359 347 346 332 328
195 122 110 81 55 69 78 80 80 81 85 97 76 304 234 183 148 113 82 93 119 92 73 55 41 46 46 56 56 47 47 44 40 25 16 15 7 358 350 345 350 1 35 42 358 342 323 335 347 0 334 321 311 327 305 299 304 306 279 291 310 171 197 215 206 218 226 177 190 108 348 342 335 338
249 142 84 84 57 59 58 51 54 55 49 28 213 112 117 113 103 120 112 98 74 74 72 66 47 30 77 77 64 70 57 47 41 37 27 24 20 14 6 358 359 54 59 43 345 349 332 332 345 338 327 307 290 295 310 311 291 267 267 303 291 303 321 308 326 225 199 182 189 177 131 311 302 317
15 67 100 94 53 50 55 54 59 59 51 40 68 68 78 75 82 102 104 109 100 96 106 142 126 78 57 64 55 50 55 58 54 45 45 31 23 24 26 12 356 355 25 71 356 358 333 338 353 330 323 319 311 309 306 298 284 258 315 292 288 304 292 303 309 301 311 330 267 341 333 269 245 239
71 84 90 83 63 66 64 58 51 65 84 77 97 107 98 102 114 129 114 114 124 126 92 67 58 47 52 61 60 54 55 59 40 45 45 38 36 40 42 13 3 7 354 359 8 357 339 324 329 321 323 314 305 300 288 296 311 326 301 297 313 307 292 300 298 304 317 313 307 281 244 229 222 240
77 110 99 88 82 93 76 60 57 63 93 109 116 104 114 140 177 111 124 130 104 95 88 82 70 60 51 49 58 54 37 35 28 4 20 39 48 37 18 56 344 4 303 325 354 354 333 318 312 328 311 301 298 299 301 299 294 302 303 299 302 298 309 306 296 308 305 308 313 316 322 322 315 290
63 76 93 101 94 104 100 104 104 92 93 116 118 124 166 171 92 76 68 76 81 87 99 105 106 98 81 66 61 48 41 21 9 336 359 14 12 341 269 265 260 267 258 345 334 11 329 325 316 319 304 293 286 288 292 294 300 294 301 310 293 301 313 292 298 312 315 315 315 318 315 318 310 316
129 123 101 93 111 126 143 158 133 121 122 120 126 174 211 125 127 128 123 126 127 136 125 109 102 91 87 84 74 46 5 37 28 4 346 327 8 350 343 331 285 252 266 300 290 329 329 321 312 313 302 291 286 286 287 293 290 296 298 288 294 298 271 298 320 310 308 315 317 313 308 304 303 305
133 156 150 132 123 101 75 85 103 122 143 158 170 168 140 112 118 122 114 109 106 90 92 100 98 101 109 133 161 177 171 109 42 1 354 338 356 335 343 313 289 277 292 284 287 282 315 309 295 307 299 298 295 286 291 292 287 288 284 283 293 291 312 310 293 299 311 315 316 304 298 294 294 289
151 142 119 122 128 126 135 141 152 156 157 152 150 118 93 82 81 90 91 92 82 73 70 82 92 104 183 193 132 229 21 30 39 7 352 346 334 336 323 303 302 308 305 309 296 285 265 281 300 295 291 292 291 294 293 284 283 284 284 286 288 290 299 297 302 304 321 320 306 301 296 297 297 298
143 150 158 151 145 153 159 165 158 146 143 121 118 132 143 138 138 143 130 105 112 135 147 134 176 157 198 56 299 302 326 26 327 32 347 332 332 323 317 309 318 319 322 319 318 310 308 314 300 284 278 277 276 284 287 285 277 280 292 304 305 302 301 300 307 310 318 304 295 299 299 294 292 285
161 167 156 161 162 164 168 156 160 156 146 143 123 90 87 123 92 99 104 97 96 98 108 166 140 49 298 179 348 326 343 349 334 34 324 324 331 317 320 320 319 326 321 317 318 320 323 317 304 290 273 262 251 247 256 268 280 291 303 310 309 301 301 310 309 313 304 301 304 295 294 298 297 289
180 162 164 162 159 165 162 163 151 127 119 120 146 136 118 94 115 99 72 58 81 94 86 44 21 1 353 345 348 334 340 337 322 321 325 321 316 318 320 316 322 324 320 317 315 321 323 317 315 308 301 288 274 237 207 233 278 301 312 308 308 307 313 318 316 308 306 297 290 293 296 295 290 296
158 174 158 166 163 167 157 129 132 157 138 138 73 118 144 107 79 79 76 30 329 30 28 5 21 355 346 338 347 333 330 328 312 328 325 321 323 320 316 316 320 319 317 312 317 322 322 317 318 318 316 319 308 309 161 148 336 320 312 311 308 309 312 311 306 301 297 293 293 297 295 296 299 299
158 166 159 160 152 157 146 153 177 150 135 150 149 303 135 142 104 67 77 5 356 3 16 322 353 353 337 337 324 306 316 320 325 329 319 327 327 321 318 320 320 319 315 319 318 314 317 317 320 317 321 317 317 311 330 141 228 258 323 311 311 309 306 304 302 300 297 298 296 293 294 298 294 298
170 166 162 162 160 180 150 166 156 216 189 188 179 166 215 55 76 74 249 237 52 332 254 299 27 338 345 351 329 335 325 325 324 317 326 324 322 325 327 322 319 323 323 316 313 314 318 317 318 325 323 318 314 312 307 324 328 242 182 264 302 300 303 303 302 306 307 303 300 300 301 298 297 295
186 171 165 161 157 166 184 194 202 201 184 201 205 207 162 182 207 220 265 350 353 325 322 303 359 3 332 328 334 325 326 329 326 327 327 324 327 327 327 325 323 323 318 312 316 314 322 317 329 332 331 324 316 315 314 308 295 304 290 261 263 277 294 302 304 303 301 302 300 302 300 296 291 275
174 184 170 173 175 203 194 187 212 205 194 210 227 224 201 205 207 280 271 240 269 353 314 348 358 320 313 350 338 335 329 326 323 324 324 321 324 323 317 329 319 307 301 307 312 318 315 319 327 332 324 312 303 298 298 291 289 279 271 257 211 243 302 305 299 299 299 298 302 301 300 299 294 297
161 187 155 194 182 197 196 197 202 206 218 144 26 17 338 18 303 297 6 15 354 310 300 343 335 324 327 326 325 329 325 321 319 315 317 314 314 313 322 309 294 299 309 311 313 312 320 331 328 334 305 299 294 294 288 286 291 305 309 316 151 196 206 233 279 293 296 299 297 297 295 296 299 299
160 162 163 186 182 189 198 193 198 178 192 215 231 200 201 235 117 58 152 152 215 238 279 283 311 305 309 318 322 323 319 315 316 322 323 321 316 316 304 300 310 318 314 311 314 317 321 317 315 313 309 306 302 299 299 301 303 304 308 307 305 283 235 206 235 252 267 289 297 294 291 293 293 291
103 105 108 100 111 134 133 119 137 185 204 221 256 285 295 281 217 192 226 190 228 253 277 296 295 311 327 330 334 324 316 310 326 329 322 317 320 317 317 318 321 316 313 311 312 317 319 320 318 314 312 307 304 302 300 304 304 302 301 305 306 308 306 289 248 225 224 233 239 250 270 287 295 289
128 136 133 137 133 126 135 151 140 70 241 225 203 218 244 260 224 220 260 279 246 263 294 307 320 321 326 324 316 309 304 326 333 317 311 317 316 315 317 317 315 316 317 315 315 315 318 318 316 311 307 305 307 303 302 302 301 302 304 305 304 302 299 300 300 287 251 222 225 233 237 240 250 268
159 154 147 145 140 136 129 134 159 175 221 240 244 239 242 239 259 251 227 273 294 297 277 278 305 312 307 312 309 309 329 329 303 305 312 312 317 317 318 317 320 319 317 317 314 315 315 315 311 308 304 304 305 301 300 298 299 302 300 298 299 301 300 303 304 301 298 299 260 226 224 230 235 237